カタログに戻る

CZ-3B R/B

運用中HEO
NORAD 39459·ROCKET BODY·🇨🇳 China

打ち上げ Dec 1, 2013 から Xichang Satellite Launch Center

Loading…

次のパス (今後24時間)

TLE

最新Source: Space-Track

元期: Sep 10, 2026, 03:47 UTC

1 39459U 13070B   26253.15808511 -.00031905  00000-0  00000-0 0  9997
2 39459  69.7637   2.0173 8376744 140.8446   4.1132  0.05566925 37288

AllMySatでCZ-3B R/Bをリアルタイム追跡

Download on the App Store